Retour au catalogue

COSMOS 1579 COOLANT

LostLEO
NORAD 28274·DEBRIS·🇷🇺 Russia

Lancé Jun 29, 1984 depuis Baikonur Cosmodrome

Loading…

Prochains Passages (prochaines 24 heures)

TLE

PériméSource: Space-Track

Époque: Jul 6, 2026, 16:37 UTC

1 28274U 84069AK  26187.69263020  .00000260  00000-0  26517-3 0  9994
2 28274  65.0481 169.1826 0050228 332.0146  27.8220 13.93232387201957

Suivez COSMOS 1579 COOLANT en temps réel avec AllMySat

Download on the App Store